Regional Weather Roundup
Issued by NWS

Home | Current Version | Previous Version | Graphics & Text | Print | Product List | Glossary On
Versions: 1 2 3 4 5 6 7 8 9 10 11 12 13 14 15 16 17 18 19 20 21 22 23 24 25 26 27 28 29 30 31 32 33 34 35 36 37 38 39 40 41 42 43 44 45 46 47 48 49 50
000
ASUS43 KLMK 260910
RWRKY
KENTUCKY REGIONAL WEATHER ROUNDUP
NATIONAL WEATHER SERVICE LOUISVILLE KY
500 AM EDT TUE SEP 26 2017

NOTE "FAIR" INDICATES FEW OR NO CLOUDS BELOW 12,000 FEET
WITH NO SIGNIFICANT WEATHER AND/OR OBSTRUCTIONS TO VISIBILITY.

KYZ001>023-026-027-061>063-070>075-261000-
WESTERN AND SOUTH CENTRAL KENTUCKY

CITY           SKY/WX    TMP DP  RH WIND       PRES   REMARKS
PADUCAH        CLEAR     64  61  90 SW3       29.96S
HENDERSON      CLEAR     65  64  97 CALM      29.97S FOG
OWENSBORO      PTCLDY    67  66  97 CALM      29.98S
HOPKINSVILLE   CLEAR     67  67  97 CALM      29.97S
BOWLING GREEN  CLEAR     65  64  97 CALM      29.98S FOG
GLASGOW        CLEAR    N/A N/A N/A CALM      29.99S HAZE
$$

KYZ024-025-028>034-038-045-046-053-261000-
NORTH CENTRAL KENTUCKY

CITY           SKY/WX    TMP DP  RH WIND       PRES   REMARKS
LOUISVILLE/SDF CLEAR     71  66  84 E3        29.99S
LOUISVILLE/LOU CLEAR     66  66 100 CALM      30.00S
FORT KNOX      CLEAR     63  63 100 CALM      29.98S FOG
$$

KYZ035>037-039>044-047>052-055>060-089>105-261000-
NORTHEAST KENTUCKY

CITY           SKY/WX    TMP DP  RH WIND       PRES   REMARKS
LEXINGTON      CLEAR     64  60  87 CALM      30.02R
COVINGTON      CLEAR     66  65  96 CALM      30.01S
FRANKFORT      CLEAR     63  60  90 CALM      30.00S
$$

KYZ054-064>069-076>088-106>120-261000-
SOUTHEAST KENTUCKY

CITY           SKY/WX    TMP DP  RH WIND       PRES   REMARKS
JACKSON        CLEAR     66  62  87 CALM      30.02S
LONDON         CLEAR     61  59  93 CALM      30.01F
SOMERSET       CLEAR     59  59 100 CALM      30.02S FOG
MIDDLESBORO    FOG       61  61 100 CALM      30.04R VSB<1/4
MONTICELLO     FOG       57  57 100 W5        30.03S VSB 3/4
$$




USA.gov is the U.S. government's official web portal to all federal, state and local government web resources and services.